528  
NZUS01 KABQ 051101  
RWRABQ  
NEW MEXICO REGIONAL WEATHER ROUNDUP  
NATIONAL WEATHER SERVICE ALBUQUERQUE NM  
400 AM MST FRI MAR 05 2021  
 
-----NORTHERN NEW MEXICO AND NEARBY AREAS-----  
 
 
CITY SKY/WX TMP DP RH WIND PRES REMARKS
 
ALBUQUERQUE FAIR 37 22 54 N5 30.26R  
BELEN FAIR 30 22 71 N10 30.26R WCI 21  
SOCORRO FAIR 41 21 45 N8G22 30.23S  
 
CITY SKY/WX TMP DP RH WIND PRES REMARKS
 
SANTA FE CLEAR 32 22 66 NW5 30.22R WCI 27  
LOS ALAMOS CLEAR 38 18 43 N16G24 30.23S  
TAOS MOCLDY 34 23 64 NW12 30.26R WCI 25  
ANGEL FIRE CLOUDY 24 20 84 S5 30.24R WCI 18  
FARMINGTON CLEAR 28 24 85 E6 30.27R WCI 22  
GRANTS CLEAR 19 16 89 CALM 30.32S  
GALLUP CLEAR 16 10 77 CALM 30.31S  
FLAGSTAFF CLEAR 21 18 88 CALM 30.32S  
DURANGO CLEAR 25 22 88 CALM 30.28R  
 
CITY SKY/WX TMP DP RH WIND PRES REMARKS
 
ALAMOSA CLOUDY 32 20 61 NW12 30.28R WCI 23  
DENVER CLEAR 33 29 85 W8 30.29R WCI 26  
CLAYTON CLOUDY 38 35 89 N23G35 30.11R  
RATON PTCLDY 37 27 67 N33G52 30.15R  
LAS VEGAS PTCLDY 32 20 61 N15 30.16R WCI 22  
CLINES CORNERS CLEAR 28 18 66 NW18 30.20R WCI 15  
SANTA ROSA FAIR 33 20 59 N7 30.15R WCI 26  
TUCUMCARI MOCLDY 47 31 53 N23G32 30.10R  
CLOVIS (AFB) CLEAR 44 28 54 NW23G29 30.08R  
CLOVIS CLEAR 44 30 57 NW24 30.08R  
AMARILLO CLOUDY 46 40 79 NW21G30 29.95R  
 
-----SOUTHERN NEW MEXICO AND NEARBY AREAS-----  
 
 
CITY SKY/WX TMP DP RH WIND PRES REMARKS
 
T OR C CLEAR 41 20 43 NW6 30.22S  
DEMING CLEAR 37 23 56 CALM 30.20S  
TUCSON CLEAR 44 29 55 S5 30.19F  
EL PASO MOCLDY 50 22 33 N16 30.15R  
LAS CRUCES CLEAR 48 24 38 N10 30.20S  
 
CITY SKY/WX TMP DP RH WIND PRES REMARKS
 
ALAMOGORDO CLEAR 38 21 50 NE10 30.21S  
RUIDOSO CLEAR 36 19 51 NW14G24 30.20R  
ROSWELL CLEAR 51 23 33 NW20G30 30.09R  
CARLSBAD CLEAR 45 21 38 W9 30.10R  
HOBBS CLEAR 46 21 36 NW20 30.07R  
 
CLICK HERE TO GO TO PREVIOUS BULLETINS.

The Nexlab NM Page Main Text Page